Showing default

ICEYE-X44, 62707

Orbit data source: Space-Track

ICEYE-X44, 62707 is an Emirian payload satellite in SSO that was launched on Tue, 14 Jan 2025 UTC via an FALCON 9 launch vehicle from the Air Force Western Test Range (AFWTR). Payload-class satellites include a variety of spacecraft equipped with specific instruments for various scientific and technological missions. These include communications satellites like Starlink; space stations such as the ISS; scientific satellites like the Hubble; Earth observation satellites from companies like Planet Labs, Umbra, and HawkEye 360; GPS; miniature CubeSats for education and research; and military/defense satellites.

Loading next visibility...
Identifier
62707, 2025-009DC
Orbit
SSO
Country
Flag of AEAE / UAE
Related business
None
Manufacturer
ICEYE
Mission
Operational Commercial Radar Imaging
Bus & Motor
ICEYE, Unknown motor
Mass
80 kg wet, 80 kg dry
Launch date (UTC)
2025-01-14 (1 year ago)
Launch vehicle
FALCON 9
Launch site
Air Force Western Test Range (AFWTR)
Object type
Payload
Rocket body
Debris
Shape & HBR
Box + 1 Pan, 0.8 m
Radar Cross Section
0.776 m², Large (>1 m²)

Expand to show TLE details & history
Last TLE update: 15 hours ago

TLE from 15 hours ago
0 ICEYE-X44
1 62707U 25009DC  26035.21312312  .00004043  00000-0  37383-3 0  9997
2 62707  97.7155 116.4815 0001355 167.0355 193.0901 14.95118158 80065
Epoch: 2026-02-04T05:06Z
TLE epoch observation values (Epoch: 2026-02-04T05:06:53.837Z)
Latitude
-0.00001°
Longitude
-94.62575°
Altitude
585.972 km
Speed
7.567 km/s
True Right ascension
07h 45m 55s
True Declination
0° 00' 00"
Sunlit
Object was in full shadow at epoch
Visualization orbit readout
Latitude
Unknown
Longitude
Unknown
Altitude
Unknown
Speed
Unknown
Apparent Right ascension
Unknown
Apparent Declination
Unknown
Sunlit
N/A
Visualization observer readout
Local Sidereal Time
21:47:47
Azimuth
Unknown
Elevation
Unknown
Doppler factor
Unknown
Orbital elements
Apogee altitude
579.961 km
Perigee altitude
578.076 km
Semi-major axis
6,957.155 km
Eccentricity
0.00014
Inclination
97.7155°
RAAN
116.4815°
Arg. of periapsis
167.0355°
True anomaly
193.08658°
Mean anomaly
193.0901°
Eccentric anomaly
193.08834°
Mean motion
3.74021 °/min
Orbital period
96.25 mins
BSTAR
0.00037383
Loading maneuver chart data...
Computing Atmospheric mass density...
Loading historical data...
Loading historical data...
Loading historical data...
Loading historical data...
Loading historical data...
Loading historical data...
Loading historical data...

Documentation

Showing up to 5 results
|